Powrót do katalogu

STARLINK-37503

AktywnyŁącznośćVLEO
NORAD 69262·PAYLOAD·🇺🇸 United States

Wystrzelony May 29, 2026 z Cape Canaveral Space Force Station

Loading…

Następne Przeloty (najbliższe 24 godziny)

TLE

ŚwieżeSource: CelesTrak SupGP

Epoka: Sep 15, 2026, 03:32 UTC

1 69262C 26117AA  26258.14770833  .00043020  00000+0  12716-2 0  2583
2 69262  53.1571 178.9463 0001054  84.1823 240.9005 15.34356277    17

Śledź STARLINK-37503 w czasie rzeczywistym z AllMySat

Download on the App Store